Volver al catálogo

STARLINK-35642

ActivoComunicacionesVLEO
NORAD 66398·PAYLOAD·🇺🇸 United States

Lanzado Nov 8, 2025 desde Cape Canaveral Space Force Station

Loading…

Próximos Pases (próximas 24 horas)

TLE

ActualizadoSource: CelesTrak SupGP

Época: Sep 14, 2026, 21:42 UTC

1 66398C 25257U   26257.90465278  .00030488  00000+0  90177-3 0  2572
2 66398  53.1582  54.2284 0001465  81.9442  86.3905 15.34340250    16

Sigue STARLINK-35642 en tiempo real con AllMySat

Download on the App Store